Date String (YYYY-MM-DD hh:mm:ss) UTC,Instrument flags,Ambient pressure (hPa),Sample flow (lpm),Bypass flow (lpm),Sample temperature (°C),Ambient temperature (°C),ASC tube jacket temperature (°C),LED temperature (°C),Box temperature (°C),Sample RH (%),Span deviation,Mass concentration (μg/m³),Mass concentration (μg/m³),Mass concentration (μg/m³)
DateTimeUTC,F1_M11,P_M11,Q1_M11,Q2_M11,T1_M11,T2_M11,T3_M11,T4_M11,T5_M11,U1_M11,ZSPAN_M11,X0_M11,X2_M11,X1_M11
2022-01-23 14:00:00,,0829.0,5.02,0.00,22.4,21.8,00.0,31.3,24.1,08.5,0000.0,0001.66,0000.66,0000.50
2022-01-23 14:01:00,,0828.9,4.98,0.00,22.3,21.8,00.0,31.3,24.0,08.5,0000.0,0001.87,0000.73,0000.51
2022-01-23 14:02:00,,0829.0,5.01,0.00,22.3,21.7,00.0,31.3,24.0,08.4,0000.0,0002.45,0000.82,0000.53
2022-01-23 14:03:00,,0829.0,5.01,0.00,22.3,21.6,00.0,31.3,24.0,08.4,0000.0,0002.73,0000.89,0000.55
2022-01-23 14:04:00,,0829.1,4.99,0.00,22.3,21.6,00.0,31.3,24.0,08.4,0000.0,0003.11,0000.93,0000.58
2022-01-23 14:05:00,,0829.0,5.00,0.00,22.2,21.6,00.0,31.3,23.9,08.4,0000.0,0003.29,0001.01,0000.61
2022-01-23 14:06:00,,0829.0,5.00,0.00,22.2,21.5,00.0,31.3,23.9,08.4,0000.0,0003.62,0001.13,0000.64
2022-01-23 14:07:00,,0829.1,5.01,0.00,22.2,21.5,00.0,31.2,23.9,08.4,0000.0,0003.73,0001.17,0000.67
2022-01-23 14:08:00,,0829.1,4.99,0.00,22.2,21.5,00.0,31.2,23.9,08.4,0000.0,0003.63,0001.18,0000.70
2022-01-23 14:09:00,,0829.1,5.01,0.00,22.1,21.5,00.0,31.2,23.9,08.4,0000.0,0003.58,0001.20,0000.72
2022-01-23 14:10:00,,0829.1,4.99,0.00,22.1,21.5,00.0,31.2,23.8,08.4,0000.0,0003.23,0001.23,0000.73
2022-01-23 14:11:00,,0829.0,5.00,0.00,22.1,21.4,00.0,31.2,23.8,08.4,0000.0,0003.44,0001.28,0000.75
2022-01-23 14:12:00,,0829.0,5.01,0.00,22.1,21.6,00.0,31.2,23.8,08.5,0000.0,0003.37,0001.26,0000.75
2022-01-23 14:13:00,,0829.1,5.00,0.00,22.2,22.3,00.0,31.2,24.0,08.5,0000.0,0002.82,0001.18,0000.74
2022-01-23 14:14:00,,0829.2,4.99,0.00,22.3,23.0,00.0,31.2,24.3,08.4,0000.0,0002.73,0001.20,0000.72
2022-01-23 14:15:00,,0829.2,5.00,0.00,22.4,23.1,00.0,31.3,24.4,08.3,0000.0,0003.07,0001.30,0000.72
2022-01-23 14:16:00,,0829.2,4.98,0.00,22.5,22.9,00.0,31.3,24.4,08.2,0000.0,0003.44,0001.37,0000.71
2022-01-23 14:17:00,,0829.2,5.01,0.00,22.5,22.7,00.0,31.3,24.3,08.2,0000.0,0004.17,0001.40,0000.70
2022-01-23 14:18:00,,0829.2,5.01,0.00,22.5,22.5,00.0,31.3,24.3,08.1,0000.0,0004.12,0001.39,0000.69
2022-01-23 14:19:00,,0829.2,4.99,0.00,22.5,22.3,00.0,31.3,24.3,08.1,0000.0,0004.59,0001.40,0000.69
2022-01-23 14:20:00,,0829.2,4.99,0.00,22.4,22.2,00.0,31.3,24.2,08.1,0000.0,0005.20,0001.42,0000.68
2022-01-23 14:21:00,,0829.2,5.01,0.00,22.4,22.1,00.0,31.3,24.2,08.0,0000.0,0005.23,0001.43,0000.67
2022-01-23 14:22:00,,0829.3,5.00,0.00,22.4,22.0,00.0,31.3,24.2,08.0,0000.0,0005.11,0001.42,0000.67
2022-01-23 14:23:00,,0829.2,4.99,0.00,22.4,21.9,00.0,31.3,24.2,07.9,0000.0,0005.22,0001.40,0000.66
2022-01-23 14:24:00,,0829.3,5.01,0.00,22.4,21.9,00.0,31.3,24.1,07.9,0000.0,0005.79,0001.39,0000.66
2022-01-23 14:25:00,,0829.2,4.99,0.00,22.4,21.8,00.0,31.3,24.1,07.9,0000.0,0005.59,0001.31,0000.66
2022-01-23 14:26:00,,0829.2,5.01,0.00,22.4,21.8,00.0,31.3,24.1,07.9,0000.0,0005.02,0001.21,0000.65
2022-01-23 14:27:00,,0829.2,5.00,0.00,22.4,21.8,00.0,31.3,24.1,08.0,0000.0,0004.63,0001.10,0000.64
2022-01-23 14:28:00,,0829.4,5.00,0.00,22.4,21.7,00.0,31.3,24.1,08.0,0000.0,0003.61,0000.96,0000.63
2022-01-23 14:29:00,,0829.7,5.00,0.00,22.3,21.7,00.0,31.3,24.1,08.0,0000.0,0003.83,0000.94,0000.63
2022-01-23 14:30:00,,0829.4,4.99,0.00,22.3,21.7,00.0,31.3,24.1,08.0,0000.0,0003.80,0000.92,0000.62
2022-01-23 14:31:00,,0829.3,4.99,0.00,22.3,21.6,00.0,31.3,24.1,08.0,0000.0,0004.02,0000.89,0000.62
2022-01-23 14:32:00,,0829.3,5.01,0.00,22.3,21.6,00.0,31.3,24.1,08.0,0000.0,0003.88,0000.86,0000.62
2022-01-23 14:33:00,,0829.4,5.00,0.00,22.3,21.6,00.0,31.3,24.0,08.0,0000.0,0003.84,0000.82,0000.61
2022-01-23 14:34:00,,0829.3,4.99,0.00,22.3,21.6,00.0,31.3,24.0,08.0,0000.0,0003.71,0000.80,0000.61
2022-01-23 14:35:00,,0829.2,5.01,0.00,22.3,21.6,00.0,31.3,24.0,08.0,0000.0,0003.06,0000.81,0000.60
2022-01-23 14:36:00,,0829.2,5.00,0.00,22.3,21.6,00.0,31.3,24.0,08.0,0000.0,0003.08,0000.82,0000.60
2022-01-23 14:37:00,,0829.3,5.00,0.00,22.3,21.6,00.0,31.2,24.0,08.0,0000.0,0003.00,0000.80,0000.60
2022-01-23 14:38:00,,0829.5,5.01,0.00,22.2,21.6,00.0,31.2,24.0,08.0,0000.0,0002.91,0000.76,0000.59
2022-01-23 14:39:00,,0829.3,4.99,0.00,22.2,21.6,00.0,31.2,24.0,08.0,0000.0,0002.92,0000.76,0000.59
2022-01-23 14:40:00,,0829.4,5.02,0.00,22.3,22.0,00.0,31.2,24.1,08.0,0000.0,0002.74,0000.76,0000.60
2022-01-23 14:41:00,,0829.3,4.98,0.00,22.4,22.8,00.0,31.3,24.3,07.9,0000.0,0002.27,0000.73,0000.59
2022-01-23 14:42:00,,0829.4,5.02,0.00,22.5,23.2,00.0,31.3,24.5,07.9,0000.0,0001.46,0000.75,0000.58
2022-01-23 14:43:00,,0829.4,5.01,0.00,22.6,23.0,00.0,31.3,24.5,07.9,0000.0,0001.24,0000.76,0000.58
2022-01-23 14:44:00,,0829.4,5.00,0.00,22.6,22.8,00.0,31.4,24.5,07.8,0000.0,0001.17,0000.75,0000.59
2022-01-23 14:45:00,,0829.4,5.00,0.00,22.6,22.7,00.0,31.4,24.4,07.8,0000.0,0001.11,0000.74,0000.59
2022-01-23 14:46:00,,0829.4,5.00,0.00,22.6,22.5,00.0,31.4,24.4,07.8,0000.0,0001.05,0000.71,0000.59
2022-01-23 14:47:00,,0829.5,5.01,0.00,22.6,22.4,00.0,31.4,24.4,07.8,0000.0,0001.00,0000.70,0000.59
2022-01-23 14:48:00,,0829.4,4.99,0.00,22.6,22.3,00.0,31.4,24.4,07.8,0000.0,0001.06,0000.71,0000.58
2022-01-23 14:49:00,,0829.4,4.99,0.00,22.6,22.2,00.0,31.4,24.3,07.9,0000.0,0001.29,0000.74,0000.58
2022-01-23 14:50:00,,0829.4,5.00,0.00,22.6,22.2,00.0,31.4,24.3,08.0,0000.0,0001.29,0000.74,0000.59
2022-01-23 14:51:00,,0829.4,5.01,0.00,22.6,22.1,00.0,31.4,24.3,08.0,0000.0,0001.27,0000.73,0000.59
2022-01-23 14:52:00,,0829.4,4.99,0.00,22.5,22.1,00.0,31.4,24.3,08.0,0000.0,0001.36,0000.77,0000.60
2022-01-23 14:53:00,,0829.3,4.98,0.00,22.5,22.0,00.0,31.4,24.3,08.0,0000.0,0001.45,0000.77,0000.60
2022-01-23 14:54:00,,0829.2,5.01,0.00,22.5,22.0,00.0,31.4,24.3,08.0,0000.0,0001.39,0000.77,0000.60
2022-01-23 14:55:00,,0829.2,5.00,0.00,22.5,21.9,00.0,31.4,24.3,08.0,0000.0,0001.45,0000.80,0000.60
2022-01-23 14:56:00,,0829.2,4.99,0.00,22.5,21.9,00.0,31.4,24.3,08.0,0000.0,0001.51,0000.82,0000.60
2022-01-23 14:57:00,,0829.2,5.00,0.00,22.5,21.9,00.0,31.4,24.2,08.0,0000.0,0001.54,0000.84,0000.60
2022-01-23 14:58:00,,0829.3,5.02,0.00,22.5,21.9,00.0,31.4,24.2,08.0,0000.0,0001.62,0000.83,0000.59
2022-01-23 14:59:00,,0829.5,4.99,0.00,22.5,21.9,00.0,31.4,24.2,08.0,0000.0,0001.60,0000.82,0000.59
